Location: Ethel Rock
(53.4667°N, 4.5667°W)
Time: 05:16:42
(UTC+00:00)

Cosmos 1269 Rocket - Pass Details

Date: 24 October 2020
Orbit: 773 x 779 km, 74.1° (Epoch: 25 November)

Event Time Altitude Azimuth Distance (km) Brightness Sun altitude
Exits shadow 05:20:55 - 209° (SSW) 3,090 6.8 -15.7°
Reaches altitude 10° 05:22:53 10° 211° (SSW) 2,327 6.2 -15.4°
Maximum altitude 05:28:11 77° 297° (WNW) 805 4.0 -14.6°
Drops below altitude 10° 05:33:32 10° 24° (NNE) 2,345 6.8 -13.8°
Sets 05:35:56 0° 26° (NNE) 3,277 7.6 -13.5°
